Regional Weather Roundup
Issued by NWS

Home | Current Version | Previous Version | Graphics & Text | Print | Product List | Glossary On
Versions: 1 2 3 4 5 6 7 8 9 10 11 12 13 14 15 16 17 18 19 20 21 22 23 24 25 26 27 28 29 30 31 32 33 34 35 36 37 38 39 40 41 42 43 44 45 46 47 48 49 50
000
ASUS43 KLMK 181710
RWRKY
KENTUCKY REGIONAL WEATHER ROUNDUP
NATIONAL WEATHER SERVICE LOUISVILLE KY
100 PM EDT FRI APR 18 2014

NOTE "FAIR" INDICATES FEW OR NO CLOUDS BELOW 12,000 FEET
WITH NO SIGNIFICANT WEATHER AND/OR OBSTRUCTIONS TO VISIBILITY.

KYZ001>023-026-027-061>063-070>075-181800-
WESTERN AND SOUTH CENTRAL KENTUCKY

CITY           SKY/WX    TMP DP  RH WIND       PRES   REMARKS
PADUCAH        SUNNY     72  42  34 N8        30.28S
HENDERSON      SUNNY     64  37  36 N6        30.28F
OWENSBORO      PTSUNNY   68  44  41 SW7       30.29F
HOPKINSVILLE   PTSUNNY   68  48  49 NW3       30.28F
BOWLING GREEN  PTSUNNY   66  45  46 VRB5      30.30F
GLASGOW        PTSUNNY   66  43  43 SW5       30.30F
$$

KYZ024-025-028>034-038-045-046-053-181800-
NORTH CENTRAL KENTUCKY

CITY           SKY/WX    TMP DP  RH WIND       PRES   REMARKS
LOUISVILLE/SDF PTSUNNY   69  38  32 N3        30.28F
LOUISVILLE/LOU PTSUNNY   69  37  30 VRB3      30.29F
FORT KNOX      PTSUNNY   67  43  41 N6        30.28F
$$

KYZ035>037-039>044-047>052-055>060-089>105-181800-
NORTHEAST KENTUCKY

CITY           SKY/WX    TMP DP  RH WIND       PRES   REMARKS
LEXINGTON      PTSUNNY   67  41  38 W7        30.31F
COVINGTON      PTSUNNY   67  36  31 NW5       30.29F
FRANKFORT      PTSUNNY   66  37  34 W8        30.29F
$$

KYZ054-064>069-076>088-106>120-181800-
SOUTHEAST KENTUCKY

CITY           SKY/WX    TMP DP  RH WIND       PRES   REMARKS
JACKSON        PTSUNNY   66  37  34 SW6       30.32F
LONDON         CLOUDY    63  36  36 CALM      30.33F
SOMERSET       CLOUDY    63  37  39 CALM      30.33F
MIDDLESBORO    CLOUDY    61  32  34 CALM      30.34F
MONTICELLO     CLOUDY   N/A N/A N/A CALM      30.33F
$$




USA.gov is the U.S. government's official web portal to all federal, state and local government web resources and services.